TimeEST,TemperatureF,Dew PointF,Humidity,Sea Level PressureIn,VisibilityMPH,Wind Direction,Wind SpeedMPH,Gust SpeedMPH,PrecipitationIn,Events,Conditions,WindDirDegrees,DateUTC
12:14 AM,54.0,53.1,97,29.98,1.8,SE,3.5,-,N/A,,Mist,130,2014-02-26 05:14:00
12:19 AM,54.0,54.0,100,29.98,3.0,SSE,4.6,-,N/A,,Mist,150,2014-02-26 05:19:00
12:44 AM,53.1,52.0,96,29.97,1.8,Calm,Calm,-,N/A,,Mist,0,2014-02-26 05:44:00
12:48 AM,53.6,51.8,94,29.97,0.8,Calm,Calm,-,N/A,,Mist,0,2014-02-26 05:48:00
12:53 AM,53.1,52.0,96,29.97,0.5,Calm,Calm,-,N/A,Fog,Fog,0,2014-02-26 05:53:00
1:23 AM,55.0,54.0,96,29.96,0.2,Calm,Calm,-,N/A,Fog,Fog,0,2014-02-26 06:23:00
1:53 AM,55.0,54.0,96,29.95,0.2,Calm,Calm,-,0.00,Fog,Fog,0,2014-02-26 06:53:00
2:53 AM,55.0,55.0,100,29.93,0.2,Calm,Calm,-,N/A,Fog,Fog,0,2014-02-26 07:53:00
3:53 AM,55.0,54.0,96,29.92,0.5,Calm,Calm,-,N/A,Fog,Fog,0,2014-02-26 08:53:00
4:53 AM,54.0,54.0,100,29.90,0.5,East,3.5,-,N/A,Fog,Fog,80,2014-02-26 09:53:00
5:53 AM,55.0,54.0,96,29.90,0.5,Calm,Calm,-,N/A,Fog,Fog,0,2014-02-26 10:53:00
6:53 AM,55.0,55.0,100,29.91,0.5,Calm,Calm,-,N/A,Fog,Fog,0,2014-02-26 11:53:00
7:53 AM,57.0,57.0,100,29.89,0.2,SE,4.6,-,0.00,Fog,Fog,140,2014-02-26 12:53:00
8:53 AM,59.0,59.0,100,29.90,0.2,South,4.6,-,N/A,Fog,Fog,180,2014-02-26 13:53:00
9:21 AM,61.0,61.0,100,29.90,1.8,SSE,3.5,-,N/A,,Overcast,160,2014-02-26 14:21:00
9:25 AM,61.0,61.0,100,29.90,3.0,SSE,4.6,-,N/A,,Overcast,160,2014-02-26 14:25:00
9:53 AM,63.0,62.1,97,29.90,8.0,SSE,5.8,-,N/A,,Unknown,160,2014-02-26 14:53:00
10:53 AM,66.0,61.0,84,29.90,10.0,South,4.6,-,N/A,,Mostly Cloudy,170,2014-02-26 15:53:00
11:53 AM,69.1,62.1,78,29.86,10.0,SSE,6.9,-,N/A,,Mostly Cloudy,150,2014-02-26 16:53:00
12:07 PM,70.0,63.0,78,29.84,10.0,SE,4.6,-,N/A,,Mostly Cloudy,140,2014-02-26 17:07:00
12:53 PM,73.0,64.0,73,29.82,10.0,WSW,16.1,23.0,N/A,,Overcast,240,2014-02-26 17:53:00
1:33 PM,73.0,64.9,76,29.79,10.0,SW,13.8,23.0,0.00,,Overcast,220,2014-02-26 18:33:00
1:41 PM,73.0,64.9,76,29.78,10.0,SW,17.3,24.2,0.00,,Overcast,220,2014-02-26 18:41:00
1:50 PM,73.4,64.4,73,29.77,10.0,SW,16.1,23.0,0.00,,Overcast,220,2014-02-26 18:50:00
1:53 PM,73.0,64.9,76,29.77,10.0,SW,18.4,24.2,0.00,,Overcast,220,2014-02-26 18:53:00
2:02 PM,71.1,64.9,81,29.78,1.2,SW,23.0,27.6,0.11,Rain,Heavy Rain,220,2014-02-26 19:02:00
2:11 PM,70.0,66.0,87,29.76,2.0,SW,12.7,-,0.12,Rain,Light Rain,220,2014-02-26 19:11:00
2:18 PM,70.0,66.0,87,29.76,3.0,SW,8.1,-,0.17,Rain,Light Rain,230,2014-02-26 19:18:00
2:23 PM,70.0,66.0,87,29.77,2.0,West,9.2,-,0.19,Rain,Rain,270,2014-02-26 19:23:00
2:31 PM,69.1,66.9,93,29.77,4.0,WNW,9.2,-,0.21,Rain,Light Rain,290,2014-02-26 19:31:00
2:34 PM,69.1,66.9,93,29.77,1.5,WNW,15.0,20.7,0.30,Rain,Light Rain,290,2014-02-26 19:34:00
2:38 PM,69.1,66.9,93,29.77,1.0,WNW,17.3,20.7,0.38,Rain,Heavy Rain,290,2014-02-26 19:38:00
2:45 PM,66.0,64.0,93,29.77,0.5,West,15.0,24.2,0.58,Fog-Rain,Heavy Rain,270,2014-02-26 19:45:00
2:53 PM,66.9,64.9,93,29.77,1.2,WSW,9.2,-,0.59,Rain,Light Rain,240,2014-02-26 19:53:00
2:55 PM,66.9,64.9,93,29.77,4.0,WSW,9.2,-,0.00,Rain,Light Rain,250,2014-02-26 19:55:00
3:16 PM,66.9,64.9,93,29.77,10.0,West,12.7,-,0.00,Rain,Light Rain,280,2014-02-26 20:16:00
3:23 PM,66.9,64.9,93,29.77,10.0,West,10.4,-,0.00,Rain,Light Rain,270,2014-02-26 20:23:00
3:53 PM,68.0,64.0,87,29.77,10.0,West,9.2,-,0.00,Rain,Light Rain,280,2014-02-26 20:53:00
4:17 PM,68.0,64.0,87,29.77,10.0,WNW,8.1,-,0.00,Rain,Light Rain,300,2014-02-26 21:17:00
4:53 PM,66.9,64.0,90,29.77,10.0,West,6.9,-,0.00,Rain,Light Rain,280,2014-02-26 21:53:00
5:33 PM,66.0,63.0,90,29.78,10.0,WNW,6.9,-,0.00,Rain,Light Rain,290,2014-02-26 22:33:00
5:53 PM,66.0,64.0,93,29.79,10.0,WNW,5.8,-,0.02,Rain,Light Rain,300,2014-02-26 22:53:00
6:53 PM,64.9,63.0,93,29.81,10.0,WNW,4.6,-,0.01,Rain,Light Rain,300,2014-02-26 23:53:00
7:00 PM,64.9,63.0,93,29.81,10.0,NNW,4.6,-,0.01,Rain,Light Rain,330,2014-02-27 00:00:00
7:53 PM,64.0,63.0,96,29.81,7.0,North,4.6,-,0.03,Rain,Light Rain,10,2014-02-27 00:53:00
8:53 PM,63.0,62.1,97,29.81,10.0,SE,3.5,-,0.01,Rain,Light Rain,140,2014-02-27 01:53:00
9:53 PM,63.0,61.0,93,29.81,10.0,North,3.5,-,0.00,Rain,Light Rain,350,2014-02-27 02:53:00
10:53 PM,62.1,61.0,96,29.83,10.0,Calm,Calm,-,0.00,Rain,Light Rain,0,2014-02-27 03:53:00
11:53 PM,62.1,61.0,96,29.83,10.0,WNW,4.6,-,0.00,Rain,Light Rain,290,2014-02-27 04:53:00